IZ6UQU-13 Weather Reports


time (UTC)temp
F
wind
direction
speed
knots
gust
knots
rain 1hr
in
rain 24hr
in
rain mn
in
humidity
%
barometer
mb
20260504050508 45 0 0.0 1.7 0.00 0.00 0.00 94 960.1
20260504050008 45 58 0.9 1.7 0.00 0.00 0.00 93 960.1
20260504045508 45 0 0.0 1.7 0.00 0.00 0.00 93 960.0
20260504045008 45 0 0.0 1.7 0.00 0.00 0.00 92 960.0
20260504044508 46 81 0.0 3.5 0.00 0.00 0.00 94 960.0
20260504044008 45 277 0.9 3.5 0.00 0.00 0.00 94 960.0
20260504043508 45 265 0.0 3.5 0.00 0.00 0.00 94 960.0
20260504043008 44 270 0.9 1.7 0.00 0.00 0.00 94 960.0
20260504042508 44 0 0.0 1.7 0.00 0.00 0.00 94 960.1
20260504042008 44 0 0.0 0.0 0.00 0.00 0.00 93 960.1
20260504041508 44 0 0.0 0.9 0.00 0.00 0.00 93 960.0
20260504041008 45 280 0.0 0.9 0.00 0.00 0.00 93 960.0
20260504040508 45 276 0.0 2.6 0.00 0.00 0.00 94 960.0
20260504040008 44 288 0.0 2.6 0.00 0.00 0.00 92 960.0
20260504035508 45 0 0.0 0.9 0.00 0.00 0.00 92 960.0
20260504035008 45 0 0.0 0.0 0.00 0.00 0.00 92 960.0
20260504034508 45 0 0.0 0.9 0.00 0.00 0.00 92 959.9
20260504034008 46 0 0.0 1.7 0.00 0.00 0.00 92 959.9
20260504033508 46 285 0.0 3.5 0.00 0.00 0.00 92 959.9
20260504033008 46 273 0.9 3.5 0.00 0.00 0.00 92 959.8
20260504032508 46 261 1.7 3.5 0.00 0.00 0.00 92 960.0
20260504032008 46 262 1.7 3.5 0.00 0.00 0.00 92 960.0
20260504031508 46 266 0.9 3.5 0.00 0.00 0.00 92 960.1
20260504031008 46 268 1.7 2.6 0.00 0.00 0.00 93 960.0
20260504030508 45 275 0.0 3.5 0.00 0.00 0.00 93 960.1
20260504030008 45 277 0.9 3.5 0.00 0.00 0.00 94 960.0
20260504025508 45 274 2.6 3.5 0.00 0.00 0.00 93 960.2
20260504025008 45 279 1.7 3.5 0.00 0.00 0.00 94 960.2
20260504024508 45 272 0.0 1.7 0.00 0.00 0.00 94 960.1
20260504024008 45 173 0.0 1.7 0.00 0.00 0.00 94 960.2
20260504023508 45 286 0.0 0.9 0.00 0.00 0.00 94 960.2
20260504023008 45 0 0.0 0.9 0.00 0.00 0.00 94 960.3
20260504022508 45 299 0.9 0.9 0.00 0.00 0.00 94 960.2
20260504022008 45 0 0.0 0.0 0.00 0.00 0.00 93 960.3
20260504021508 45 0 0.0 0.0 0.00 0.00 0.00 93 960.2
20260504021008 45 0 0.0 0.0 0.00 0.00 0.00 92 960.2
20260504020508 45 0 0.0 0.0 0.00 0.00 0.00 92 960.2
20260504020008 45 0 0.0 0.9 0.00 0.00 0.00 92 960.2
20260504015508 46 0 0.0 2.6 0.00 0.00 0.00 91 960.2
20260504015008 46 265 0.9 2.6 0.00 0.00 0.00 91 960.2
20260504014508 46 267 1.7 2.6 0.00 0.00 0.00 92 960.2
20260504014008 46 274 0.0 3.5 0.00 0.00 0.00 91 960.3
20260504013508 46 274 0.9 4.3 0.00 0.00 0.00 92 960.3
20260504013008 46 255 3.5 4.3 0.00 0.00 0.00 92 960.3
20260504012507 46 284 0.0 0.9 0.00 0.00 0.00 92 960.2
20260504012007 46 286 0.0 1.7 0.00 0.00 0.00 92 960.2
20260504011508 46 0 0.0 1.7 0.00 0.00 0.00 92 960.2
20260504011008 46 284 0.0 0.9 0.00 0.00 0.00 92 960.1
20260504010507 46 0 0.0 0.9 0.00 0.00 0.00 92 960.2
20260504010008 46 0 0.0 0.9 0.00 0.00 0.00 91 960.1
20260504005507 46 0 0.0 0.0 0.00 0.00 0.00 92 960.2
20260504005008 46 0 0.0 1.7 0.00 0.00 0.00 92 960.2
20260504004507 46 293 0.0 2.6 0.00 0.00 0.00 92 960.1
20260504004007 46 276 1.7 2.6 0.00 0.00 0.00 92 960.1
20260504003507 47 280 0.9 2.6 0.00 0.00 0.00 91 960.1
20260504003007 47 280 0.9 2.6 0.00 0.00 0.00 92 960.2
20260504002507 46 276 0.0 2.6 0.00 0.00 0.00 91 960.2
20260504002007 47 284 1.7 2.6 0.00 0.00 0.00 91 960.2
20260504001507 46 274 0.0 1.7 0.00 0.00 0.00 90 960.2
20260504001007 47 0 0.0 1.7 0.00 0.00 0.00 90 960.2
20260504000507 47 274 0.9 1.7 0.00 0.00 0.00 90 960.2
20260504000007 47 0 0.0 0.0 0.00 0.00 0.00 90 960.3
20260503235507 47 0 0.0 0.0 0.00 0.00 0.00 90 960.2
20260503235007 48 0 0.0 0.0 0.00 0.00 0.00 90 960.2
20260503234507 48 0 0.0 3.5 0.00 0.00 0.00 89 960.3
20260503234007 48 291 0.0 3.5 0.00 0.00 0.00 89 960.4
20260503233507 48 274 1.7 3.5 0.00 0.00 0.00 88 960.4
20260503233007 48 277 1.7 3.5 0.00 0.00 0.00 88 960.5
20260503232507 49 237 0.0 2.6 0.00 0.00 0.00 88 960.5
20260503232007 49 198 0.9 2.6 0.00 0.00 0.00 88 960.4
20260503231507 49 0 0.0 2.6 0.00 0.00 0.00 88 960.5
20260503231007 49 274 1.7 2.6 0.00 0.00 0.00 89 960.5
20260503230507 49 290 0.0 2.6 0.00 0.00 0.00 88 960.5
20260503230009 49 274 0.0 2.6 0.00 0.00 0.00 87 960.4
20260503225507 49 275 1.7 3.5 0.00 0.00 0.00 89 960.4
20260503225007 48 290 0.0 3.5 0.00 0.00 0.00 88 960.4
20260503224507 49 275 2.6 3.5 0.00 0.00 0.00 87 960.4
20260503224007 50 278 0.9 2.6 0.00 0.00 0.00 86 960.5
20260503223507 50 247 1.7 2.6 0.00 0.00 0.00 87 960.5
20260503223007 50 0 0.0 2.6 0.00 0.00 0.00 86 960.6
20260503222507 50 0 0.0 3.5 0.00 0.00 0.00 86 960.5
20260503222007 50 178 0.9 3.5 0.00 0.00 0.00 86 960.5
20260503221507 50 192 1.7 3.5 0.00 0.00 0.00 86 960.4
20260503221008 50 205 0.0 2.6 0.00 0.00 0.00 86 960.4
20260503220508 51 197 0.9 2.6 0.00 0.00 0.00 85 960.4
20260503220008 51 0 0.0 3.5 0.00 0.00 0.00 85 960.4
20260503215508 51 282 1.7 3.5 0.00 0.00 0.00 85 960.4
20260503215008 51 280 1.7 2.6 0.00 0.00 0.00 85 960.3
20260503214508 51 291 0.0 2.6 0.00 0.00 0.00 85 960.2
20260503214008 51 285 0.0 3.5 0.00 0.00 0.00 85 960.3
20260503213507 51 282 0.9 3.5 0.00 0.00 0.00 85 960.2
20260503213008 51 283 0.9 3.5 0.00 0.00 0.00 85 960.2
20260503212507 52 279 1.7 3.5 0.00 0.00 0.00 84 960.2
20260503212007 52 0 0.0 1.7 0.00 0.00 0.00 83 960.1
20260503211507 52 41 0.0 4.3 0.00 0.00 0.00 83 960.2
20260503211007 52 161 1.7 4.3 0.00 0.00 0.00 82 960.1
20260503210507 52 186 0.0 2.6 0.00 0.00 0.00 83 960.0
20260503210008 52 0 0.0 2.6 0.00 0.00 0.00 83 960.0
20260503205507 52 264 0.0 2.6 0.00 0.00 0.00 82 960.0
20260503205007 53 248 0.0 1.7 0.00 0.00 0.00 82 960.1
20260503204507 53 245 0.0 3.5 0.00 0.00 0.00 82 960.0
20260503204007 53 191 0.9 3.5 0.00 0.00 0.00 81 960.1
20260503203507 54 264 0.0 2.6 0.00 0.00 0.00 81 960.0
20260503203007 53 264 0.0 2.6 0.00 0.00 0.00 82 960.0
20260503202507 53 264 0.0 2.6 0.00 0.00 0.00 82 959.9
20260503202007 53 275 0.0 2.6 0.00 0.00 0.00 82 959.9
20260503201507 53 0 0.0 0.9 0.00 0.00 0.00 82 959.9
20260503201008 53 286 0.0 0.9 0.00 0.00 0.00 82 959.9
20260503200507 53 294 0.0 0.9 0.00 0.00 0.00 81 959.8
20260503200007 53 262 0.0 2.6 0.00 0.00 0.00 81 959.8
20260503195507 53 270 0.9 2.6 0.00 0.00 0.00 81 959.7
20260503195007 54 276 1.7 2.6 0.00 0.00 0.00 80 959.6
20260503194507 54 271 0.0 3.5 0.00 0.00 0.00 80 959.6
20260503194007 54 275 0.0 3.5 0.00 0.00 0.00 80 959.4
20260503193507 54 285 0.9 2.6 0.00 0.00 0.00 79 959.5
20260503193007 55 0 0.0 2.6 0.00 0.00 0.00 78 959.4
20260503192507 55 0 0.0 3.5 0.00 0.00 0.00 78 959.3
20260503192007 56 260 1.7 3.5 0.00 0.00 0.00 77 959.3
20260503191507 56 267 1.7 2.6 0.00 0.00 0.00 76 959.3
20260503191007 57 283 0.0 0.9 0.00 0.00 0.00 75 959.2
20260503190507 57 283 0.0 0.9 0.00 0.00 0.00 74 959.1
20260503190007 57 0 0.0 1.7 0.00 0.00 0.00 74 959.1
20260503185507 58 285 0.9 1.7 0.00 0.00 0.00 73 959.1
20260503185007 58 0 0.0 0.9 0.00 0.00 0.00 72 959.0
20260503184507 58 0 0.0 0.9 0.00 0.00 0.00 71 958.9
20260503184007 59 71 0.0 1.7 0.00 0.00 0.00 71 958.8
20260503183507 59 83 0.0 2.6 0.00 0.00 0.00 70 958.7
20260503183007 60 84 0.0 2.6 0.00 0.00 0.00 69 958.7
20260503182507 60 131 0.0 3.5 0.00 0.00 0.00 69 958.7
20260503182007 60 98 1.7 3.5 0.00 0.00 0.00 69 958.7
20260503181507 60 84 0.9 5.2 0.00 0.00 0.00 69 958.7
20260503181007 60 89 0.9 5.2 0.00 0.00 0.00 68 958.6
20260503180507 61 85 0.9 5.2 0.00 0.00 0.00 68 958.6
20260503180007 61 105 1.7 6.1 0.00 0.00 0.00 67 958.5
20260503175507 62 70 2.6 6.1 0.00 0.00 0.00 66 958.6
20260503175007 62 39 1.7 5.2 0.00 0.00 0.00 65 958.4
20260503174507 63 91 1.7 5.2 0.00 0.00 0.00 64 958.4
20260503174007 63 100 0.9 7.8 0.00 0.00 0.00 64 958.3
20260503173507 63 86 2.6 7.8 0.00 0.00 0.00 64 958.3
20260503173007 63 87 0.9 7.0 0.00 0.00 0.00 63 958.4
20260503172507 64 96 2.6 7.0 0.00 0.00 0.00 63 958.4
20260503172007 64 85 2.6 8.7 0.00 0.00 0.00 62 958.2
20260503171507 64 87 1.7 9.6 0.00 0.00 0.00 61 958.2
20260503171007 65 94 4.3 9.6 0.00 0.00 0.00 60 958.2
20260503170507 65 85 3.5 11.3 0.00 0.00 0.00 61 958.3
20260503151007 69 111 6.1 13.0 0.00 0.00 0.00 54 958.4
20260503150506 69 131 7.0 11.3 0.00 0.00 0.00 53 958.5
20260503131007 73 53 0.9 4.3 0.00 0.00 0.00 35 958.6
20260503130507 72 294 1.7 5.2 0.00 0.00 0.00 35 958.7
20260503110508 67 192 2.6 5.2 0.00 0.00 0.00 38 960.0
20260503090508 60 107 2.6 6.1 0.00 0.00 0.00 51 960.9
20260503081507 58 55 2.6 4.3 0.00 0.00 0.00 57 961.2
20260503081007 58 50 0.9 4.3 0.00 0.00 0.00 57 961.2
20260503080507 58 60 1.7 3.5 0.00 0.00 0.00 58 961.3
20260503072507 54 350 0.0 3.5 0.00 0.00 0.00 63 961.7
20260503072007 54 3 0.0 3.5 0.00 0.00 0.00 63 961.7
20260503071507 52 99 0.0 3.5 0.00 0.00 0.00 69 961.8
20260503071007 52 88 1.7 3.5 0.00 0.00 0.00 71 961.7
20260503070507 51 72 0.9 3.5 0.00 0.00 0.00 72 961.6
20260503055007 47 0 0.0 0.0 0.00 0.00 0.00 74 961.7
20260503054507 46 115 0.0 0.0 0.00 0.00 0.00 76 961.6
20260503054007 45 0 0.0 0.9 0.00 0.00 0.00 78 961.7
20260503053507 44 271 0.0 0.9 0.00 0.00 0.00 79 961.7